Location: Archemont
(49.1579°N, 1.7598°E)
Time: 10:35:47
(UTC+00:00)

Vanguard 3 - Visible Passes

Search period start: 17 April 2024 00:00
Search period end: 27 April 2024 00:00
Orbit: 510 x 3235 km, 33.3° (Epoch: 16 April)

Date Brightness Start Highest point End Pass type
(mag) Time Alt. Az. Time Alt. Az. Time Alt. Az.
17 Apr 10.6 02:51:25 10° SSE 02:54:17 11° SSE 02:56:52 10° SE visible
18 Apr 10.2 03:40:53 10° SSW 03:48:27 18° SSE 03:54:04 10° SE visible
19 Apr 10.5 02:24:46 11° S 02:30:32 15° SSE 02:35:54 10° SE visible
20 Apr 10.1 03:15:28 11° SSW 03:24:43 22° SSE 03:31:38 10° ESE visible
21 Apr 10.5 02:01:52 16° S 02:06:35 18° SSE 02:13:42 10° ESE visible
21 Apr 9.8 04:08:12 10° SW 04:18:51 28° S 04:25:52 10° ESE visible
22 Apr 10.8 00:48:11 13° SSE 00:48:14 13° SSE 00:53:41 10° SE visible
22 Apr 10.1 02:52:24 16° SSW 03:00:47 26° SSE 03:08:53 10° ESE visible
23 Apr 10.4 01:38:37 20° S 01:42:24 22° SSE 01:51:01 10° ESE visible
23 Apr 9.8 03:42:49 10° SW 03:54:58 32° S 04:02:58 10° ESE visible
24 Apr 10.8 00:24:45 16° SE 00:24:45 16° SE 00:31:31 10° ESE visible
24 Apr 10.1 02:28:56 20° SSW 02:36:39 29° SSE 02:45:53 10° ESE visible
25 Apr 10.4 01:14:58 24° S 01:18:01 25° SSE 01:27:57 10° ESE visible
25 Apr 9.8 03:19:09 14° SW 03:30:52 35° S 03:39:53 10° ESE visible
26 Apr 10.7 00:00:55 18° SE 00:00:55 18° SE 00:08:37 10° ESE visible
26 Apr 10.1 02:05:05 24° SSW 02:12:16 33° SSE 02:22:39 10° ESE visible
